Location: C�mpuri de-Sus
(45.9500°N, 22.5500°E)
Time: 11:59:32
(UTC+00:00)

Cosmos 2278 Rocket - Pass Details

Date: 30 May 2022
Orbit: 840 x 846 km, 71.0° (Epoch: 01 July)

Event Time Altitude Azimuth Distance (km) Brightness Sun altitude
Rises 20:57:08 0° 339° (NNW) 3,418 7.0 -19.2°
Reaches altitude 10° 20:59:55 10° 350° (N) 2,479 5.8 -19.3°
Maximum altitude 21:04:52 30° 51° (NE) 1,483 3.6 -19.6°
Enters shadow 21:08:32 16° 103° (ESE) 2,084 3.9 -19.9°
